Location: Ozark
(37.5425°N, 88.7628°W)
Time: 00:31:46
(UTC+00:00)

Cosmos 2058 - Pass Details

Date: 26 January 2020
Orbit: 563 x 583 km, 82.5° (Epoch: 24 February)

Event Time Altitude Azimuth Distance (km) Brightness Sun altitude
Rises 12:33:19 0° 351° (N) 2,811 6.2 -6.4°
Reaches altitude 10° 12:35:31 10° 350° (N) 1,908 5.3 -6.0°
Maximum altitude 12:39:44 77° 265° (W) 602 2.9 -5.2°
Drops below altitude 10° 12:43:54 10° 179° (S) 1,893 5.9 -4.4°
Sets 12:46:05 0° 178° (S) 2,786 6.7 -4.0°
